timestamp,wind_dir_avg,wind_spd_avg,wind_spd_max_dir,wind_spd_gust,battery_voltage,lat,long
2022-04-22 00:04:00+00:00,89.0,5.6,93.0,6.29,12.73,47.59359,-54.27349
2022-04-22 00:14:01+00:00,104.0,3.42,102.0,5.17,12.49,47.59359,-54.27349
2022-04-22 00:24:01+00:00,110.0,2.51,102.0,4.43,12.49,47.59359,-54.27349
2022-04-22 00:34:01+00:00,167.0,1.23,172.0,1.47,12.49,47.59359,-54.27349
2022-04-22 00:44:01+00:00,142.0,1.93,139.0,2.46,12.49,47.59359,-54.27349
2022-04-22 00:54:01+00:00,70.0,0.92,46.0,1.54,12.49,47.59359,-54.27349
2022-04-22 01:04:01+00:00,90.0,0.71,99.0,2.56,12.49,47.59359,-54.27349
2022-04-22 01:14:01+00:00,99.0,2.33,100.0,5.25,12.41,47.59359,-54.27349
2022-04-22 01:24:01+00:00,80.0,2.31,97.0,3.27,12.41,47.59359,-54.27349
2022-04-22 01:34:01+00:00,60.0,1.6,59.0,2.22,12.41,47.59359,-54.27349
2022-04-22 01:44:01+00:00,68.0,1.36,90.0,2.85,12.41,47.59359,-54.27349
2022-04-22 01:54:01+00:00,107.0,1.14,97.0,1.95,12.41,47.59359,-54.27349
2022-04-22 02:04:01+00:00,146.0,3.03,146.0,3.59,12.41,47.59359,-54.27349
2022-04-22 02:14:00+00:00,125.0,1.93,128.0,2.38,12.41,47.59359,-54.27349
2022-04-22 02:24:00+00:00,85.0,0.71,48.0,1.41,12.41,47.59359,-54.27349
2022-04-22 02:34:00+00:00,83.0,1.17,65.0,2.0,12.41,47.59359,-54.27349
2022-04-22 02:44:00+00:00,147.0,2.02,144.0,2.53,12.41,47.59359,-54.27349
2022-04-22 02:54:00+00:00,113.0,2.06,115.0,3.06,12.41,47.59359,-54.27349
2022-04-22 03:04:00+00:00,101.0,1.6,117.0,3.04,12.41,47.59359,-54.27349
2022-04-22 03:14:00+00:00,135.0,2.65,134.0,3.48,12.41,47.59359,-54.27349
2022-04-22 03:24:00+00:00,111.0,1.47,105.0,2.71,12.41,47.59359,-54.27349
2022-04-22 03:34:00+00:00,116.0,1.44,116.0,2.72,12.41,47.59359,-54.27349
2022-04-22 03:44:00+00:00,111.0,1.21,128.0,2.15,12.41,47.59359,-54.27349
2022-04-22 03:54:00+00:00,112.0,1.83,117.0,2.43,12.41,47.59359,-54.27349
2022-04-22 04:04:00+00:00,70.0,1.17,45.0,1.52,12.41,47.59359,-54.27349
2022-04-22 04:14:00+00:00,120.0,1.55,150.0,2.74,12.41,47.59359,-54.27349
2022-04-22 04:24:00+00:00,114.0,1.02,125.0,1.55,12.41,47.59359,-54.27349
2022-04-22 04:34:00+00:00,121.0,1.62,122.0,2.21,12.41,47.59359,-54.27349
2022-04-22 04:44:00+00:00,121.0,2.1,116.0,3.07,12.41,47.59359,-54.27349
2022-04-22 04:54:00+00:00,124.0,1.9,133.0,2.3,12.41,47.59359,-54.27349
2022-04-22 05:04:00+00:00,139.0,2.09,148.0,2.4,12.41,47.59359,-54.27349
2022-04-22 05:14:01+00:00,137.0,2.52,134.0,3.06,12.41,47.59359,-54.27349
2022-04-22 05:24:01+00:00,123.0,1.84,130.0,2.32,12.41,47.59359,-54.27349
2022-04-22 05:34:01+00:00,127.0,1.12,142.0,1.53,12.41,47.59359,-54.27349
2022-04-22 05:44:01+00:00,96.0,0.89,89.0,1.53,12.41,47.59359,-54.27349
2022-04-22 05:54:01+00:00,97.0,0.78,102.0,1.12,12.41,47.59359,-54.27349
2022-04-22 06:04:01+00:00,104.0,0.89,104.0,1.07,12.41,47.59359,-54.27349
2022-04-22 06:14:01+00:00,95.0,0.78,97.0,0.86,12.33,47.59359,-54.27349
2022-04-22 06:24:01+00:00,93.0,0.45,94.0,0.69,12.33,47.59359,-54.27349
2022-04-22 06:34:01+00:00,91.0,0.91,86.0,1.17,12.33,47.59359,-54.27349
2022-04-22 06:44:01+00:00,96.0,0.98,117.0,1.4,12.33,47.59359,-54.27349
2022-04-22 06:54:01+00:00,170.0,0.75,253.0,2.12,12.33,47.59359,-54.27349
2022-04-22 07:04:01+00:00,125.0,0.93,117.0,1.69,12.33,47.59359,-54.27349
2022-04-22 07:14:01+00:00,117.0,0.94,117.0,1.22,12.33,47.59359,-54.27349
2022-04-22 07:24:01+00:00,82.0,0.93,97.0,1.43,12.33,47.59359,-54.27349
2022-04-22 07:34:01+00:00,181.0,0.31,263.0,2.28,12.33,47.59359,-54.27349
2022-04-22 07:44:01+00:00,159.0,1.05,167.0,1.45,12.33,47.59359,-54.27349
2022-04-22 07:54:01+00:00,156.0,2.25,157.0,2.75,12.33,47.59359,-54.27349
2022-04-22 08:04:01+00:00,166.0,3.18,165.0,3.44,12.33,47.59359,-54.27349
2022-04-22 08:14:00+00:00,184.0,3.22,178.0,3.57,12.25,47.59359,-54.27349
2022-04-22 08:24:00+00:00,162.0,3.18,164.0,3.52,12.25,47.59359,-54.27349
2022-04-22 08:34:00+00:00,176.0,3.13,176.0,3.38,12.25,47.59359,-54.27349
2022-04-22 08:44:00+00:00,159.0,3.16,160.0,3.44,12.25,47.59359,-54.27349
2022-04-22 08:54:00+00:00,184.0,3.84,183.0,4.43,12.25,47.59359,-54.27349
2022-04-22 09:04:00+00:00,180.0,3.72,177.0,4.21,12.25,47.59359,-54.27349
2022-04-22 09:14:00+00:00,185.0,3.87,187.0,4.46,12.17,47.59359,-54.27349
2022-04-22 09:24:00+00:00,179.0,3.63,181.0,3.93,12.17,47.59359,-54.27349
2022-04-22 09:34:00+00:00,190.0,3.55,193.0,4.07,12.17,47.59359,-54.27349
2022-04-22 09:44:00+00:00,191.0,2.99,196.0,3.21,12.17,47.59359,-54.27349
2022-04-22 09:54:00+00:00,188.0,3.64,191.0,3.87,12.17,47.59359,-54.27349
2022-04-22 10:04:00+00:00,174.0,4.07,172.0,4.51,12.17,47.59359,-54.27349
2022-04-22 10:14:01+00:00,181.0,3.57,177.0,4.25,13.53,47.59359,-54.27349
2022-04-22 10:24:01+00:00,173.0,3.83,176.0,4.24,13.53,47.59359,-54.27349
2022-04-22 10:34:01+00:00,170.0,3.27,169.0,3.46,13.53,47.59359,-54.27349
2022-04-22 10:44:01+00:00,160.0,3.07,161.0,3.33,13.53,47.59359,-54.27349
2022-04-22 10:54:01+00:00,155.0,2.89,158.0,3.06,13.53,47.59359,-54.27349
2022-04-22 11:04:01+00:00,197.0,2.86,197.0,3.37,13.53,47.59359,-54.27349
2022-04-22 11:14:00+00:00,204.0,2.14,203.0,2.56,13.6,47.59359,-54.27349
2022-04-22 11:24:00+00:00,205.0,2.08,228.0,3.36,13.6,47.59359,-54.27349
2022-04-22 11:34:00+00:00,152.0,2.12,136.0,2.83,13.6,47.59359,-54.27349
2022-04-22 11:44:00+00:00,177.0,2.3,165.0,3.13,13.6,47.59359,-54.27349
2022-04-22 11:54:00+00:00,189.0,1.5,215.0,2.61,13.6,47.59359,-54.27349
2022-04-22 12:04:00+00:00,234.0,7.41,239.0,9.99,13.6,47.59359,-54.27349
2022-04-22 12:14:00+00:00,206.0,7.36,205.0,8.24,13.84,47.59359,-54.27349
2022-04-22 12:24:00+00:00,203.0,7.55,195.0,9.67,13.84,47.59359,-54.27349
2022-04-22 12:34:00+00:00,168.0,6.89,169.0,7.94,13.84,47.59359,-54.27349
2022-04-22 12:44:00+00:00,204.0,7.23,205.0,7.95,13.84,47.59359,-54.27349
2022-04-22 12:54:00+00:00,208.0,8.59,214.0,9.8,13.84,47.59359,-54.27349
2022-04-22 13:04:00+00:00,213.0,8.95,226.0,11.43,13.84,47.59359,-54.27349
2022-04-22 13:14:00+00:00,201.0,8.3,202.0,9.07,14.32,47.59359,-54.27349
2022-04-22 13:24:00+00:00,197.0,7.23,200.0,8.41,14.32,47.59359,-54.27349
2022-04-22 13:34:00+00:00,221.0,10.29,227.0,11.74,14.32,47.59359,-54.27349
2022-04-22 13:44:00+00:00,209.0,9.0,226.0,10.78,14.32,47.59359,-54.27349
2022-04-22 13:54:00+00:00,211.0,9.35,224.0,11.96,14.32,47.59359,-54.27349
2022-04-22 14:04:00+00:00,217.0,9.22,227.0,11.94,14.32,47.59359,-54.27349
2022-04-22 14:14:00+00:00,227.0,11.66,229.0,12.57,14.08,47.59359,-54.27349
2022-04-22 14:24:00+00:00,220.0,9.14,233.0,11.3,14.08,47.59359,-54.27349
2022-04-22 14:34:00+00:00,226.0,11.04,229.0,12.39,14.08,47.59359,-54.27349
2022-04-22 14:44:00+00:00,226.0,10.45,225.0,12.05,14.08,47.59359,-54.27349
2022-04-22 14:54:00+00:00,223.0,10.71,227.0,12.3,14.08,47.59359,-54.27349
2022-04-22 15:04:00+00:00,214.0,10.12,220.0,11.99,14.08,47.59359,-54.27349
2022-04-22 15:14:01+00:00,215.0,11.24,222.0,12.81,13.68,47.59359,-54.27349
2022-04-22 15:24:01+00:00,223.0,10.44,228.0,11.87,13.68,47.59359,-54.27349
2022-04-22 15:34:01+00:00,198.0,7.84,198.0,9.07,13.68,47.59359,-54.27349
2022-04-22 15:44:01+00:00,209.0,8.92,226.0,11.82,13.68,47.59359,-54.27349
2022-04-22 15:54:01+00:00,209.0,9.58,212.0,11.79,13.68,47.59359,-54.27349
2022-04-22 16:04:01+00:00,188.0,9.41,196.0,10.83,13.68,47.59359,-54.27349
2022-04-22 16:14:01+00:00,200.0,9.79,200.0,10.66,13.68,47.59359,-54.27349
2022-04-22 16:24:01+00:00,204.0,9.77,217.0,11.56,13.68,47.59359,-54.27349
2022-04-22 16:34:01+00:00,221.0,12.31,224.0,13.54,13.68,47.59359,-54.27349
2022-04-22 16:44:01+00:00,219.0,12.51,222.0,13.65,13.68,47.59359,-54.27349
2022-04-22 16:54:01+00:00,218.0,9.72,224.0,12.74,13.68,47.59359,-54.27349
2022-04-22 17:04:01+00:00,227.0,11.34,230.0,12.63,13.68,47.59359,-54.27349
2022-04-22 17:14:01+00:00,218.0,10.17,229.0,12.31,13.84,47.59359,-54.27349
2022-04-22 17:24:01+00:00,216.0,9.37,228.0,12.36,13.84,47.59359,-54.27349
2022-04-22 17:34:01+00:00,207.0,8.32,224.0,9.86,13.84,47.59359,-54.27349
2022-04-22 17:44:01+00:00,209.0,9.01,226.0,12.24,13.84,47.59359,-54.27349
2022-04-22 17:54:01+00:00,207.0,8.98,221.0,11.36,13.84,47.59359,-54.27349
2022-04-22 18:04:01+00:00,206.0,8.89,228.0,11.11,13.84,47.59359,-54.27349
2022-04-22 18:14:00+00:00,208.0,7.79,229.0,11.13,13.76,47.59359,-54.27349
2022-04-22 18:24:00+00:00,214.0,9.64,227.0,12.44,13.76,47.59359,-54.27349
2022-04-22 18:34:00+00:00,204.0,8.47,204.0,9.6,13.76,47.59359,-54.27349
2022-04-22 18:44:00+00:00,215.0,9.4,225.0,12.12,13.76,47.59359,-54.27349
2022-04-22 18:54:00+00:00,219.0,10.88,227.0,12.41,13.76,47.59359,-54.27349
2022-04-22 19:04:00+00:00,212.0,9.24,221.0,11.37,13.76,47.59359,-54.27349
2022-04-22 19:14:01+00:00,214.0,10.2,224.0,12.45,13.84,47.59359,-54.27349
2022-04-22 19:24:01+00:00,211.0,10.11,223.0,11.99,13.84,47.59359,-54.27349
2022-04-22 19:34:01+00:00,209.0,9.31,214.0,10.25,13.84,47.59359,-54.27349
2022-04-22 19:44:01+00:00,205.0,8.85,205.0,9.71,13.84,47.59359,-54.27349
2022-04-22 19:54:01+00:00,201.0,9.15,202.0,9.81,13.84,47.59359,-54.27349
2022-04-22 20:04:01+00:00,209.0,8.6,220.0,10.18,13.84,47.59359,-54.27349
2022-04-22 20:14:01+00:00,209.0,8.67,211.0,10.11,13.68,47.59359,-54.27349
2022-04-22 20:24:01+00:00,205.0,7.6,202.0,9.36,13.68,47.59359,-54.27349
2022-04-22 20:34:01+00:00,205.0,7.45,213.0,8.6,13.68,47.59359,-54.27349
2022-04-22 20:44:01+00:00,201.0,7.82,204.0,9.0,13.68,47.59359,-54.27349
2022-04-22 20:54:01+00:00,204.0,7.5,206.0,8.49,13.68,47.59359,-54.27349
2022-04-22 21:04:01+00:00,203.0,7.89,204.0,8.46,13.68,47.59359,-54.27349
2022-04-22 21:14:00+00:00,199.0,7.62,203.0,8.53,13.44,47.59359,-54.27349
2022-04-22 21:24:00+00:00,194.0,8.82,194.0,9.73,13.44,47.59359,-54.27349
2022-04-22 21:34:00+00:00,200.0,8.15,200.0,8.73,13.44,47.59359,-54.27349
2022-04-22 21:44:00+00:00,206.0,8.64,207.0,9.74,13.44,47.59359,-54.27349
2022-04-22 21:54:00+00:00,202.0,9.37,204.0,10.09,13.44,47.59359,-54.27349
2022-04-22 22:04:00+00:00,204.0,8.6,209.0,9.26,13.44,47.59359,-54.27349
2022-04-22 22:14:01+00:00,204.0,8.06,208.0,8.96,13.05,47.59359,-54.27349
2022-04-22 22:24:01+00:00,205.0,7.04,206.0,7.47,13.05,47.59359,-54.27349
2022-04-22 22:34:01+00:00,204.0,6.3,200.0,7.55,13.05,47.59359,-54.27349
2022-04-22 22:44:01+00:00,209.0,7.73,211.0,8.41,13.05,47.59359,-54.27349
2022-04-22 22:54:01+00:00,205.0,7.2,208.0,8.14,13.05,47.59359,-54.27349
2022-04-22 23:04:01+00:00,200.0,8.28,206.0,9.27,13.05,47.59359,-54.27349
2022-04-22 23:14:01+00:00,200.0,7.78,208.0,8.84,12.49,47.59359,-54.27349
2022-04-22 23:24:01+00:00,205.0,8.03,203.0,9.03,12.49,47.59359,-54.27349
2022-04-22 23:34:01+00:00,215.0,6.41,215.0,8.12,12.49,47.59359,-54.27349
2022-04-22 23:44:01+00:00,213.0,7.26,214.0,8.21,12.49,47.59359,-54.27349
2022-04-22 23:54:01+00:00,213.0,8.7,216.0,9.85,12.49,47.59359,-54.27349
